Location: Bourcenac
(45.0797°N, 2.3918°E)
Time: 03:23:48
(UTC+00:00)

Daily predictions for brighter satellites

Satellite Brightness Start Highest point End
(mag) Time Altitude Azimuth Time Altitude Azimuth Time Altitude Azimuth
Cosmos 2322 Rocket 2.3 00:05:15 51° WSW 00:06:30 67° WNW 00:12:07 10° NNE
Okean 1-7 3.8 00:06:47 44° WNW 00:06:47 44° WNW 00:11:00 10° N
Cosmos 923 Rocket 4.1 00:04:41 10° NNW 00:09:57 61° WSW 00:10:11 60° WSW
Cosmos 1818 4.2 00:04:54 10° NNW 00:10:16 53° NE 00:12:49 29° ESE
USA 267 3.7 00:10:32 40° SW 00:10:32 40° SW 00:16:36 10° WNW
ALOS 2 4.1 00:11:03 25° W 00:11:03 25° W 00:14:14 10° NW
Cosmos 1242 Rocket 4.1 00:08:07 10° N 00:11:04 29° ENE 00:11:04 29° ENE
ATLAS CENTAUR R/B 3.1 00:08:52 10° NNW 00:13:23 35° NE 00:16:20 18° E
Cosmos 1782 Rocket 4.1 00:14:29 10° NNW 00:18:18 49° WNW 00:18:18 49° WNW
Cosmos 372 Rocket 3.9 00:19:41 64° SE 00:20:02 66° ESE 00:25:09 10° NNE
ERS-2 4.3 00:18:08 10° NNW 00:20:36 18° WNW 00:20:41 18° WNW
Okean 2 Rocket 3.7 00:16:43 10° N 00:21:05 47° ENE 00:21:37 45° E
ADEOS Rocket 3.2 00:20:35 43° WSW 00:21:06 44° W 00:26:32 10° NNW
Cosmos 1953 4.3 00:23:09 10° NNE 00:26:17 21° ENE 00:27:20 19° E
Cosmos 1844 Rocket 2.6 00:21:16 10° NNW 00:26:48 64° WSW 00:27:18 61° SW
Cosmos 1844 3.6 00:22:09 10° NNW 00:27:58 75° WSW 00:28:57 60° S
Meteor 1-21 4.3 00:26:51 56° SSE 00:28:02 74° E 00:33:52 10° NNE
Cosmos 1937 Rocket 3.5 00:29:41 62° WSW 00:30:27 73° WNW 00:35:44 10° NNE
Cosmos 2112 Rocket 4.0 00:25:31 10° NNW 00:30:48 63° WSW 00:31:08 61° SW
Cosmos 1758 3.5 00:29:45 10° N 00:33:27 65° NE 00:33:27 65° NE
Cosmos 1680 Rocket 3.8 00:29:02 10° NNW 00:34:10 50° WSW 00:34:17 50° WSW
Cosmos 1674 3.2 00:36:19 52° NE 00:36:19 52° NE 00:39:27 10° NNE
Sich 1 Rocket 3.4 00:31:21 10° N 00:35:46 85° E 00:35:48 85° E
Resurs 1-4 Rocket 3.5 00:33:22 10° NE 00:37:45 26° E 00:39:19 23° ESE
Cosmos 1470 3.6 00:34:16 10° NNW 00:37:14 41° WNW 00:37:14 41° WNW
Okean 2 3.4 00:39:06 73° NE 00:39:06 73° NE 00:42:57 10° NNE
SL-08 ROCKET BODY 4.4 00:33:56 10° NNW 00:39:47 65° W 00:40:56 53° SW
Cosmos 2219 Rocket 2.2 00:39:12 56° SSE 00:40:09 65° ESE 00:45:42 10° NNE
CZ-4C R/B 3.7 00:33:20 10° NNW 00:40:17 53° NE 00:48:27 10° ESE
Cosmos 1707 3.1 00:40:54 58° NW 00:40:54 58° NW 00:44:19 10° N
SL-16 R/B 3.7 00:38:30 20° W 00:41:20 29° NW 00:46:17 10° N
COSMOS 2428 3.1 00:44:03 44° SE 00:45:10 51° ESE 00:50:40 10° NE
NOSS 3-1 (C) 4.2 00:37:46 10° NW 00:45:13 76° NE 00:54:01 10° SE
Cosmos 1437 Rocket 4.1 00:42:37 10° N 00:46:00 31° ENE 00:46:36 29° E
Cosmos 1726 4.5 00:44:04 10° NW 00:45:19 15° WNW 00:45:19 15° WNW
Cosmos 1300 Rocket 4.0 00:42:20 10° NNW 00:46:12 47° WNW 00:46:12 47° WNW
ATLAS 3B R/B 3.4 00:40:55 10° NW 00:47:43 40° WSW 00:48:51 38° SW
ASTEX 1 3.7 00:43:43 10° N 00:48:28 52° W 00:49:02 49° WSW
MOZ.5/SAFIR/RUBIN 5/SL-8 3.9 00:53:59 53° SE 00:54:59 73° ENE 00:59:43 10° N
Cosmos 1626 2.3 00:55:39 67° NNE 00:55:39 67° NNE 00:58:54 10° N
S3M 4.2 00:54:26 41° SSE 00:56:44 70° E 01:03:06 10° NNE
Cosmos 2237 Rocket 3.7 00:57:20 21° SE 00:59:17 25° ESE 01:03:49 10° NE
Cosmos 2333 4.4 01:01:59 44° WSW 01:03:36 62° WNW 01:09:12 10° NNE
KORONAS-FOTON 4.2 01:03:59 53° NW 01:03:59 53° NW 01:07:23 10° N
Cosmos 1553 Rocket 4.0 01:02:58 46° SW 01:04:45 67° W 01:10:53 10° N
ADEOS II 3.7 01:01:56 10° NE 01:06:13 25° E 01:08:45 17° SE
Cosmos 405 Rocket 2.6 01:10:48 78° ENE 01:10:48 78° ENE 01:14:23 10° NNE
Cosmos 1300 3.9 01:07:18 10° N 01:10:50 36° ENE 01:11:51 30° ESE
Cosmos 2221 Rocket 3.8 01:10:52 52° W 01:11:13 54° WNW 01:15:35 10° N
Cosmos 1386 Rocket 4.3 01:05:55 10° N 01:11:57 82° W 01:14:06 42° S
Okean 1 Rocket 3.1 01:11:28 10° N 01:15:53 78° E 01:16:47 55° SSE
Cosmos 2360 Rocket 3.4 01:13:37 23° W 01:16:10 32° NW 01:21:13 10° N
IDEFIX/ARIANE 42P 4.2 01:13:33 10° NE 01:17:56 26° E 01:20:54 16° SE
Cosmos 1238 Rocket 3.9 01:15:38 10° NNW 01:17:10 24° NW 01:17:10 24° NW
ATLAS 5 CENTAUR R/B 2.7 01:07:18 10° NW 01:18:27 72° SW 01:19:49 44° SSE
Cosmos 1461 3.5 01:16:22 10° NNW 01:20:27 57° NE 01:23:29 18° SE
Cosmos 1908 3.7 01:17:17 10° NNW 01:20:34 47° WNW 01:20:34 47° WNW
Meteor 2-10 Rocket 4.4 01:17:38 10° N 01:23:16 52° ENE 01:27:14 18° SE
Cosmos 2278 Rocket 2.7 01:22:45 10° NNW 01:28:24 60° ENE 01:33:59 10° SE
CZ-2D R/B 2.2 01:23:05 10° NNE 01:28:31 70° ESE 01:30:34 38° S
Cosmos 1867 3.5 01:30:59 44° SSW 01:32:47 82° ESE 01:38:18 10° NE
SME Rocket 2.8 01:32:57 60° SW 01:33:17 63° WSW 01:37:33 10° NNW
Gblst 52 Del rocket 4.5 01:30:00 22° W 01:33:48 66° NNW 01:39:18 10° ENE
Cosmos 1048 Rocket 3.8 01:29:18 10° NNW 01:34:30 76° WSW 01:36:29 38° S
Cosmos 2333 Rocket 3.1 01:33:18 26° WSW 01:35:47 39° NW 01:41:05 10° NNE
Cosmos 1125 Rocket 3.5 01:37:42 41° S 01:39:31 79° ESE 01:44:44 10° NNE
Cosmos 1745 Rocket 4.2 01:35:15 10° NNW 01:41:17 52° W 01:43:37 35° SW
SL-16 R/B 2.5 01:37:47 22° SSE 01:42:02 87° ENE 01:48:19 10° NNW
YAOGAN 11 4.4 01:39:55 27° SSE 01:42:13 67° ENE 01:46:39 10° N
SL-16 R/B 4.3 01:38:37 10° SE 01:42:21 18° E 01:46:07 10° ENE
Cosmos 2322 4.4 01:40:26 29° WSW 01:42:54 46° WNW 01:48:26 10° NNE
Thor Agena Rocket 4.1 01:39:08 10° N 01:44:08 46° WNW 01:46:03 32° WSW
Cosmos 1674 Rocket 4.4 01:43:30 33° W 01:44:13 35° WNW 01:48:14 10° N
Cosmos 1943 Rocket 4.3 01:40:15 10° N 01:45:00 27° NE 01:49:45 10° ESE
Cosmos 2298 Rocket 4.0 01:45:28 39° SSW 01:47:30 87° WNW 01:52:50 10° NNE
EO 1 Del DPAF 4.2 01:44:16 10° NNE 01:47:33 35° E 01:48:38 28° SE
USA 290 3.0 01:48:51 39° WNW 01:48:52 39° WNW 01:51:57 10° N
Cosmos 1980 3.9 01:46:55 32° S 01:49:29 66° ESE 01:55:06 10° NNE
Cosmos 2322 Rocket 4.5 01:48:46 10° WNW 01:51:40 14° NW 01:54:36 10° N
ATLAS CENTAUR R/B 2.2 01:47:46 10° NW 01:52:12 37° WSW 01:52:17 37° WSW
SL-14 R/B 3.8 01:56:23 38° WSW 01:57:01 42° WNW 02:00:45 10° N
Cosmos 494 Rocket 4.1 01:52:15 10° NNW 01:57:14 52° WSW 01:59:07 34° SSW
AQUA 3.8 01:52:37 10° NNE 01:57:24 82° ESE 01:59:34 33° S
USA 229 DEB 3.9 01:50:44 10° NW 01:58:09 89° WSW 02:06:04 10° SE
USA 229 3.9 01:50:50 10° NW 01:58:15 89° SW 02:06:08 10° SE
OE (NEXTSAT) 4.1 01:57:23 40° WNW 01:58:28 84° NNE 02:01:48 10° E
Cosmos 1455 Rocket 3.1 01:55:56 10° N 02:00:26 81° E 02:03:00 25° SSE
Cosmos 1953 3.2 01:59:04 10° NNW 02:02:39 31° W 02:02:56 31° W
GP-B 3.8 01:59:31 10° NNW 02:03:38 38° W 02:04:47 32° WSW
NOSS 2-2 (C) 4.3 02:00:15 10° NW 02:05:25 89° WSW 02:12:47 10° SE
Helios 1A 3.1 02:02:52 20° SSE 02:05:44 74° ENE 02:09:57 10° N
Cosmos 371 Rocket 3.4 02:04:37 34° SW 02:06:40 68° WNW 02:11:32 10° NNE
MSX 4.4 02:01:46 10° NNE 02:07:26 55° E 02:11:46 17° S
UNK 3.7 02:07:23 31° S 02:09:28 62° WSW 02:14:03 10° NNW
NPP 3.8 02:04:57 10° N 02:10:18 63° WNW 02:13:05 28° SW
Meteor 1-28 Rocket 3.1 02:10:52 28° S 02:12:45 87° WSW 02:16:31 10° NNW
Cosmos 1975 Rocket 3.0 02:11:29 33° SSW 02:13:24 74° W 02:17:51 10° N
CZ-4 R/B 4.4 02:09:31 10° N 02:13:55 42° WNW 02:15:53 27° WSW
USA 306 3.6 02:13:37 30° S 02:15:03 40° SE 02:18:58 10° ENE
USA 307 3.8 02:13:44 27° S 02:15:10 35° SE 02:19:00 10° ENE
Resurs 1-4 Rocket 2.7 02:12:44 10° N 02:17:44 44° WNW 02:20:23 25° SW
NOSS 2-2 (E) 4.5 02:13:10 10° NW 02:18:31 63° SW 02:26:01 10° SSE
Cosmos 2315 Rocket 4.4 02:18:05 25° SW 02:21:37 49° WNW 02:27:47 10° N
Cosmos 1437 Rocket 4.4 02:19:19 10° NW 02:21:54 18° W 02:21:54 18° W
SAR-Lupe-2 4.1 02:20:33 10° N 02:23:58 43° WNW 02:25:09 31° WSW
Cosmos 2219 Rocket 3.8 02:20:54 13° W 02:24:35 23° NW 02:29:01 10° N
NOSS 3-1 (A) 4.2 02:17:19 10° NW 02:24:46 56° WSW 02:33:22 10° SSE
Helios 1B rocket 4.1 02:21:58 10° NE 02:25:29 28° E 02:29:00 10° SSE
Cosmos 2074 Rocket 4.1 02:19:23 10° N 02:25:43 82° E 02:32:01 10° S
NOSS 0 Rocket 4.2 02:22:49 23° SW 02:26:41 58° WNW 02:32:52 10° NNE
MOS 1 Rocket 3.4 02:26:10 26° SSW 02:28:14 47° W 02:32:22 10° NNW
CZ-4C R/B 3.3 02:21:55 10° NW 02:29:02 47° WSW 02:37:08 10° S
COSMOS 2428 4.0 02:26:02 16° WSW 02:29:41 29° NW 02:34:36 10° N
SeaSat 1 4.4 02:27:19 10° NE 02:31:08 22° ESE 02:34:57 10° SSE
Cosmos 304 Rocket 3.9 02:30:28 25° SW 02:33:11 61° WNW 02:37:59 10° NNE
Cosmos 2184 Rocket 4.0 02:27:15 10° N 02:33:36 90° N 02:39:49 10° S
CZ-2C R/B 4.5 02:30:25 10° NE 02:34:41 25° E 02:38:51 10° SSE
Cosmos 1269 Rocket 4.1 02:32:27 10° NNW 02:37:46 85° ENE 02:43:02 10° SSE
Cosmos 1455 2.1 02:38:28 10° N 02:42:12 86° E 02:45:54 10° S
Cosmos 2237 Rocket 2.6 02:39:10 20° SW 02:42:58 54° WNW 02:48:34 10° NNE
Cosmos 1025 Rocket 3.6 02:41:57 22° SW 02:44:20 43° WNW 02:48:29 10° N
USA 308 3.1 02:42:41 23° SSW 02:45:10 60° SE 02:49:19 10° ENE
BREEZE-M DEB (TANK) 4.2 02:33:46 10° W 02:45:16 63° NNW 02:48:48 10° ENE
Cosmos 1544 Rocket 3.6 02:41:27 10° NNW 02:45:52 65° W 02:49:52 12° S
Cosmos 2084 Rocket 4.0 02:43:24 17° S 02:45:57 41° ESE 02:49:33 10° NE
Cosmos 1300 4.5 02:43:43 10° NW 02:46:05 16° W 02:46:41 15° W
ADEOS II 2.6 02:41:05 10° N 02:46:06 46° WNW 02:49:41 18° SW
Lacrosse 5 3.0 02:48:06 13° S 02:52:04 36° SE 02:56:43 10° ENE
Cosmos 2297 4.3 02:48:24 10° NNW 02:54:08 64° ENE 02:59:49 10° SE
IDEFIX/ARIANE 42P 3.1 02:52:40 10° N 02:57:41 45° WNW 03:01:42 15° SW
Cosmos 1461 4.4 02:56:20 10° WNW 02:59:04 17° WSW 02:59:38 16° WSW
CZ-2D R/B 3.9 03:04:15 10° NNW 03:07:58 19° WNW 03:11:38 10° WSW
Cosmos 2278 Rocket 3.4 03:07:45 10° NW 03:11:59 22° W 03:16:04 10° SSW
USA 305 2.9 03:09:06 14° WSW 03:12:39 75° NW 03:16:51 10° NE
ERBS 2.0 03:14:11 15° SW 03:16:36 88° NW 03:19:41 10° NE
Nadezhda 1 Rocket 4.2 03:15:49 10° SSW 03:22:07 60° WNW 03:28:24 10° N
FENGYUN 3A 3.8 03:19:57 10° NNE 03:25:22 84° ESE 03:30:45 10° SSW
SL-16 R/B 2.3 03:20:12 10° SSW 03:25:50 70° WNW 03:31:32 10° NNE
Cosmos 2341 Rocket 4.3 03:19:48 10° N 03:26:13 80° E 03:32:36 10° S
SL-16 R/B 4.1 03:22:52 10° SW 03:26:25 16° W 03:30:03 10° NW
Cosmos 1943 Rocket 2.3 03:23:34 10° NNW 03:29:08 57° WSW 03:34:39 10° S
COSMOS 2455 3.2 03:24:29 10° SSW 03:30:26 65° ESE 03:36:25 10° NE
Cosmos 2369 Rocket 2.8 03:25:46 10° NNW 03:31:19 62° ENE 03:36:51 10° SE
Meteor 2-1 Rocket 4.5 03:26:06 10° N 03:31:59 79° E 03:37:40 10° SSE
ARIANE 5 R/B 2.7 03:34:21 10° NNE 03:39:28 79° ESE 03:44:30 10° S
CBERS-1 4.5 03:34:47 10° N 03:39:40 46° WNW 03:44:32 10° SW
IRS-1C 4.2 03:37:50 10° NNE 03:43:12 83° WNW 03:48:32 10° SSW
Cosmos 2366 rocket 4.3 03:37:43 10° N 03:43:53 75° E 03:50:03 10° SSE
Cosmos 1328 3.9 03:40:04 10° S 03:43:59 83° E 03:47:57 10° N
Lacrosse 5 rocket 2.0 03:40:44 10° SSW 03:44:27 46° SE 03:48:25 10° ENE
Cosmos 1140 Rocket 4.5 03:39:45 10° NNW 03:44:56 54° ENE 03:50:03 10° SE
CZ-2C R/B 4.2 03:40:11 10° SE 03:44:57 40° ENE 03:49:48 10° N
SL-08 R/B 3.6 03:40:50 10° SSE 03:45:24 74° ENE 03:50:02 10° N
Cosmos 2251 Rocket 3.6 03:41:41 10° NNW 03:46:58 88° WSW 03:52:15 10° SSE
